[[{"header":{"parameterUnit":"m.s-1","parameterCategory":1,"la1":30.2991,"la2":30.254,"lo1":-89.0895,"lo2":-89.0444,"dy":0.0017,"dx":0.0017,"nx":28,"ny":28,"refTime":"2024-09-02T21:00:00:Z","depth":0,"parameterNumber":2,"parameterNumberName":"U-component_of_WINDS"},"data":[0,0,0,0,0,0,0,0,0,0,0,0,0,0,0,0,0,0,0,0,0,0,0,0,0,0,0,0,0,0,0,0,0,0,0,0,0,0,0,0,0,0,0,0,0,0,0,0,0,0,0,0,0,0,0,0,0,0,-4.369,-4.3691,0,-4.3723,-4.3723,-4.3723,-4.3708,-4.3707,-4.3706,-4.3705,-4.3741,-4.3742,-4.3744,0,0,0,0,0,0,0,0,0,0,0,0,0,-4.3618,-4.362,-4.369,-4.3691,-4.3691,-4.3723,-4.3723,-4.3723,-4.3708,-4.3707,-4.3706,-4.3705,-4.374,-4.3742,-4.3744,0,0,0,0,0,0,0,0,0,0,0,0,0,-4.365,-4.362,-4.369,-4.3687,-4.3687,-4.3722,-4.3723,-4.3724,-4.3708,-4.3707,-4.3706,-4.3704,-4.3739,-4.3742,-4.3744,-4.3785,0,0,-4.3752,-4.3753,0,0,0,0,0,0,0,0,-4.3648,-4.3653,-4.3687,-4.3687,-4.3687,-4.371,-4.3711,-4.3744,-4.3708,-4.37,-4.3705,-4.3704,-4.3731,-4.3735,-4.3743,-4.3787,-4.3788,-4.3752,-4.3754,-4.3755,-4.3756,0,0,0,0,0,0,0,-4.3646,-4.3651,-4.3703,-4.3688,-4.3688,-4.3685,-4.3688,-4.3717,-4.3723,-4.3701,-4.37,-4.3704,-4.3731,-4.3741,-4.3744,-4.3789,-4.3752,-4.3755,-4.3756,-4.3757,-4.3869,-4.387,0,0,0,0,0,0,-4.3644,-4.365,-4.3702,-4.3704,-4.3664,-4.3687,-4.3691,-4.3704,-4.3722,-4.3724,-4.3705,-4.3703,-4.3737,-4.3741,-4.3745,-4.3794,-4.3755,-4.3757,-4.3759,-4.3868,-4.3869,-4.3871,0,0,0,0,0,0,-4.3642,-4.3649,-4.3701,-4.3677,-4.3683,-4.369,-4.3705,-4.3705,-4.3715,-4.3725,-4.3726,-4.3713,-4.3736,-4.3742,-4.3776,-4.3795,-4.3759,-4.3761,-4.3866,-4.3868,-4.387,-4.3892,0,0,0,0,0,0,-4.364,-4.3648,-4.3663,-4.3677,-4.3684,-4.3729,-4.3706,-4.3707,-4.3719,-4.3717,-4.3733,-4.3735,-4.3736,-4.3772,-4.3778,-4.3798,-4.3763,-4.3864,-4.3867,-4.3869,-4.389,-4.3895,-4.3899,0,0,0,0,0,-4.3638,-4.3668,-4.3663,-4.367,-4.3703,-4.373,-4.3735,-4.3734,-4.3721,-4.3736,-4.3743,-4.3734,-4.3793,-4.3775,-4.3782,-4.3803,-4.3863,-4.3866,-4.3869,-4.3888,-4.3894,-4.3899,0,0,0,0,0,0,-4.3656,-4.367,-4.3665,-4.37,-4.3714,-4.3728,-4.3746,-4.3741,-4.3759,-4.3756,-4.3756,-4.376,-4.3795,-4.3803,-4.3784,-4.3845,-4.3826,-4.3831,-4.3837,-4.3844,-4.3848,-4.3845,-4.3765,0,0,0,0,0,-4.3664,-4.3684,-4.3696,-4.3726,-4.3734,-4.3739,-4.3751,-4.375,-4.3765,-4.377,-4.378,-4.3795,-4.3817,-4.3831,-4.3852,-4.3892,-4.3896,-4.3911,-4.3915,-4.3919,-4.3922,-4.3945,-4.3951,-4.3881,-4.3881,-4.3881,0,0,-4.3681,-4.3691,-4.3704,-4.373,-4.3741,-4.3763,-4.3744,-4.3768,-4.3784,-4.3774,-4.3806,-4.3814,-4.3832,-4.3869,-4.3886,-4.3876,-4.3943,-4.3923,-4.3926,-4.3927,-4.3949,-4.3955,-4.3961,-4.3884,-4.3883,-4.3883,0,0,-4.3722,-4.3732,-4.3758,-4.377,-4.3786,-4.379,-4.3797,-4.3811,-4.3816,-4.3848,-4.3841,-4.3862,-4.39,-4.3912,-4.3924,-4.3973,-4.3966,-4.398,-4.4004,-4.4026,-4.4032,-4.4036,-4.4053,-4.4059,-4.3984,-4.3984,-4.3984,0,-4.374,-4.3772,-4.3773,-4.3797,-4.3809,-4.3802,-4.3829,-4.3841,-4.3863,-4.3872,-4.3862,-4.391,-4.3921,-4.3961,-4.3973,-4.3983,-4.3991,-4.3977,-4.4031,-4.4036,-4.404,-4.4056,-4.4063,-4.3986,-4.3986,-4.3986,-4.3985,0,-4.3794,-4.3817,-4.3837,-4.3858,-4.3873,-4.3899,-4.3904,-4.3919,-4.3918,-4.3924,-4.3957,-4.3971,-4.3995,-4.4005,-4.4004,-4.4046,-4.4039,-4.403,-4.4011,-4.4048,-4.4063,-4.407,-4.3988,-4.3987,-4.3987,-4.3987,0,0,-4.3844,-4.3868,-4.3874,-4.3884,-4.3903,-4.3921,-4.3948,-4.3971,-4.3984,-4.4001,-4.4023,-4.4057,-4.4049,-4.4062,-4.4063,-4.4082,-4.412,-4.4071,-4.4071,-4.4078,-4.4167,-4.4172,-4.4179,-4.4117,-4.4118,-4.4119,-4.4165,0,-4.3886,-4.3931,-4.3933,-4.3974,-4.3995,-4.399,-4.4014,-4.4029,-4.4036,-4.4056,-4.4064,-4.4087,-4.4075,-4.4083,-4.4102,-4.4111,-4.4138,-4.4108,-4.4138,-4.4139,-4.4131,-4.4187,-4.4192,-4.4235,-4.4171,-4.4172,-4.4173,0,-4.3939,-4.3958,-4.4001,-4.4018,-4.4027,-4.4047,-4.4069,-4.4088,-4.4106,-4.411,-4.4126,-4.4124,-4.4153,-4.4135,-4.4175,-4.4155,-4.4168,-4.4175,-4.4177,-4.4178,-4.4156,-4.4188,-4.4248,-4.4254,-4.4182,-4.4182,-4.4181,0,-4.397,-4.4006,-4.4036,-4.4046,-4.4066,-4.4081,-4.4091,-4.4107,-4.4121,-4.4141,-4.415,-4.4174,-4.4186,-4.4205,-4.4211,-4.4197,-4.4251,-4.4233,-4.4255,-4.4255,-4.4264,-4.4263,-4.4325,-4.4276,-4.4276,-4.4276,-4.4276,0,-4.4015,-4.4041,-4.405,-4.4069,-4.4099,-4.4103,-4.4133,-4.4142,-4.4157,-4.4178,-4.4177,-4.4197,-4.4204,-4.4226,-4.4232,-4.4264,-4.427,-4.4274,-4.4275,-4.4273,-4.4272,-4.428,-4.4276,-4.4278,-4.4277,-4.4277,-4.4277,0,-4.4053,-4.406,-4.4093,-4.4111,-4.4116,-4.4137,-4.4153,-4.4171,-4.4179,-4.4206,-4.4213,-4.4225,-4.4251,-4.4259,-4.4291,-4.4295,-4.4332,-4.4331,-4.4325,-4.4325,-4.4346,-4.4343,-4.4413,-4.4423,-4.4369,-4.4369,-4.437,0,-4.408,-4.41,-4.412,-4.4134,-4.4144,-4.4166,-4.418,-4.4186,-4.4201,-4.4224,-4.424,-4.4266,-4.4286,-4.4329,-4.4341,-4.4366,-4.4365,-4.4388,-4.4368,-4.4366,-4.4363,-4.4361,-4.4363,-4.439,-4.4391,-4.4391,-4.4392,0,-4.4127,-4.413,-4.415,-4.4172,-4.4189,-4.4207,-4.4224,-4.4236,-4.4244,-4.4262,-4.4288,-4.4304,-4.4337,-4.4362,-4.4388,-4.4399,-4.4397,-4.4398,-4.4404,-4.4402,-4.4397,-4.4399,-4.4333,-4.4396,-4.4396,-4.4395,-4.4395,-4.4395,-4.4159,-4.4177,-4.4194,-4.4217,-4.4231,-4.4247,-4.4266,-4.4276,-4.4297,-4.4323,-4.4327,-4.4355,-4.4374,-4.4408,-4.4421,-4.4444,-4.4438,-4.4447,-4.4449,-4.4451,-4.4452,-4.4395,-4.445,-4.4449,-4.4449,-4.4449,-4.4449,0,-4.4205,-4.4216,-4.4237,-4.4261,-4.428,-4.4277,-4.4296,-4.4312,-4.4337,-4.4355,-4.4375,-4.4406,-4.4431,-4.4447,-4.4473,-4.4488,-4.4488,-4.4495,-4.4493,-4.4496,-4.4457,-4.4448,-4.4495,-4.4495,-4.4495,-4.4495,-4.4495,-4.4495,-4.4231,-4.4261,-4.4266,-4.4304,-4.4315,-4.4342,-4.4353,-4.4369,-4.4383,-4.4417,-4.4438,-4.4448,-4.4465,-4.4493,-4.4517,-4.4521,-4.453,-4.4537,-4.454,-4.4503,-4.4498,-4.4494,-4.4485,-4.4539,-4.454,-4.4577,-4.4578,-4.4578]},{"header":{"parameterUnit":"m.s-1","parameterCategory":1,"la1":30.2991,"la2":30.254,"lo1":-89.0895,"lo2":-89.0444,"dy":0.0017,"dx":0.0017,"nx":28,"ny":28,"refTime":"2024-09-02T21:00:00:Z","depth":0,"parameterNumber":3,"parameterNumberName":"V-component_of_WINDS"},"data":[0,0,0,0,0,0,0,0,0,0,0,0,0,0,0,0,0,0,0,0,0,0,0,0,0,0,0,0,0,0,0,0,0,0,0,0,0,0,0,0,0,0,0,0,0,0,0,0,0,0,0,0,0,0,0,0,0,0,2.4829,2.4828,0,2.4725,2.4724,2.4723,2.4547,2.4544,2.454,2.4537,2.4435,2.4435,2.4435,0,0,0,0,0,0,0,0,0,0,0,0,0,2.4881,2.4881,2.4829,2.4828,2.4827,2.4726,2.4724,2.4723,2.4548,2.4544,2.454,2.4536,2.4435,2.4435,2.4436,0,0,0,0,0,0,0,0,0,0,0,0,0,2.4827,2.4881,2.483,2.4727,2.4717,2.4726,2.4724,2.4722,2.4548,2.4543,2.4539,2.4534,2.4435,2.4435,2.4436,2.4538,0,0,2.4437,2.4437,0,0,0,0,0,0,0,0,2.483,2.4825,2.4743,2.4734,2.4723,2.4644,2.4705,2.4661,2.455,2.4613,2.4537,2.4532,2.4509,2.4503,2.4494,2.4533,2.4528,2.4437,2.4437,2.4438,2.4438,0,0,0,0,0,0,0,2.4834,2.4828,2.4788,2.4743,2.473,2.4688,2.4675,2.4696,2.459,2.4607,2.4594,2.4584,2.4502,2.4494,2.4491,2.4527,2.4437,2.4438,2.4438,2.4438,2.4647,2.4652,0,0,0,0,0,0,2.4852,2.4833,2.4792,2.4785,2.4765,2.4691,2.4676,2.4674,2.4589,2.4571,2.4588,2.4576,2.4496,2.449,2.4486,2.4601,2.4438,2.4438,2.4438,2.4641,2.4648,2.4653,0,0,0,0,0,0,2.4854,2.485,2.4796,2.4805,2.4795,2.4695,2.4695,2.4675,2.4667,2.4575,2.4555,2.4599,2.4492,2.4486,2.4526,2.4595,2.4438,2.4439,2.4635,2.4643,2.4651,2.4831,0,0,0,0,0,0,2.4856,2.4852,2.4888,2.4807,2.4795,2.4836,2.4699,2.4676,2.4668,2.4651,2.458,2.4563,2.4487,2.4527,2.4527,2.4593,2.4439,2.4629,2.4639,2.4648,2.4818,2.4844,2.4866,0,0,0,0,0,2.4859,2.4943,2.4891,2.4887,2.4838,2.484,2.4834,2.4743,2.4674,2.471,2.4652,2.4566,2.4588,2.4532,2.4531,2.4598,2.4624,2.4636,2.4647,2.4808,2.4839,2.4865,0,0,0,0,0,0,2.5034,2.493,2.4871,2.4932,2.4896,2.4811,2.4853,2.4779,2.4763,2.4748,2.4638,2.4624,2.4679,2.4643,2.4583,2.4694,2.4593,2.4605,2.4715,2.4744,2.4767,2.4774,2.444,0,0,0,0,0,2.508,2.5089,2.4999,2.5061,2.5046,2.4954,2.4952,2.4885,2.4844,2.4829,2.4773,2.4738,2.4737,2.4739,2.4733,2.4813,2.4796,2.4859,2.4883,2.4903,2.4914,2.4956,2.4984,2.4692,2.4692,2.4692,0,0,2.5175,2.5119,2.5132,2.5095,2.506,2.5074,2.4942,2.4962,2.4971,2.4832,2.4866,2.4826,2.478,2.4841,2.4866,2.4813,2.4992,2.4918,2.4935,2.4935,2.4971,2.4999,2.5024,2.47,2.4699,2.4697,0,0,2.5354,2.5313,2.536,2.5329,2.5277,2.5215,2.5228,2.5154,2.5121,2.5154,2.5051,2.5062,2.5062,2.5034,2.502,2.5194,2.5115,2.5195,2.5319,2.5361,2.5384,2.5404,2.5466,2.549,2.5207,2.5208,2.5208,0,2.5478,2.5493,2.5395,2.5421,2.5409,2.5285,2.5334,2.5308,2.5258,2.5253,2.5195,2.5194,2.5154,2.5208,2.5251,2.5244,2.5256,2.5201,2.5388,2.5407,2.5424,2.5483,2.5507,2.5218,2.5217,2.5216,2.5215,0,2.5649,2.5661,2.5707,2.5661,2.5654,2.5692,2.5602,2.5608,2.5544,2.549,2.5527,2.5476,2.5458,2.5466,2.5404,2.5513,2.5482,2.5408,2.5304,2.5464,2.5517,2.5539,2.5232,2.5229,2.5226,2.5223,0,0,2.5932,2.5834,2.5853,2.5831,2.5767,2.5776,2.581,2.5792,2.58,2.5771,2.5797,2.5803,2.5734,2.5719,2.5653,2.569,2.5833,2.5611,2.5608,2.5654,2.5952,2.6008,2.6035,2.5781,2.5785,2.5788,2.5956,0,2.6097,2.6147,2.6062,2.6133,2.6145,2.6029,2.6059,2.6024,2.5976,2.598,2.5927,2.5932,2.5841,2.5831,2.5863,2.5809,2.5891,2.5795,2.5806,2.5807,2.582,2.6062,2.6121,2.6282,2.5976,2.5979,2.5982,0,2.6295,2.6276,2.6349,2.6282,2.6284,2.6312,2.629,2.6296,2.6256,2.6218,2.6203,2.6125,2.6156,2.6058,2.61,2.6038,2.6038,2.6012,2.6016,2.6013,2.5904,2.6066,2.633,2.6355,2.6014,2.6011,2.6009,0,2.6495,2.6488,2.653,2.6516,2.644,2.6463,2.6433,2.6387,2.6383,2.6366,2.6362,2.6349,2.6342,2.6335,2.6257,2.6192,2.631,2.6204,2.6281,2.6283,2.6309,2.6309,2.6578,2.6311,2.6311,2.6311,2.631,0,2.6688,2.6737,2.6619,2.6646,2.6698,2.6602,2.6657,2.6615,2.6577,2.6595,2.6495,2.6514,2.641,2.6419,2.6359,2.6405,2.6402,2.6374,2.6357,2.6382,2.6386,2.638,2.6367,2.6317,2.6315,2.6314,2.6313,0,2.6918,2.6842,2.6881,2.6806,2.6789,2.6831,2.6769,2.6791,2.6738,2.6762,2.6762,2.6679,2.6685,2.6607,2.6597,2.6557,2.663,2.6594,2.6644,2.6632,2.6713,2.6707,2.6987,2.702,2.6734,2.6736,2.6739,0,2.7045,2.708,2.7011,2.7015,2.699,2.6998,2.6994,2.6902,2.6902,2.6861,2.689,2.6887,2.688,2.6895,2.6835,2.6828,2.6791,2.689,2.6789,2.6815,2.6793,2.6792,2.6795,2.6911,2.6914,2.6917,2.692,0,2.7279,2.7241,2.7237,2.7222,2.722,2.7204,2.7181,2.7191,2.7091,2.7097,2.7101,2.7096,2.7088,2.7088,2.707,2.7041,2.6965,2.6952,2.697,2.6995,2.7023,2.701,2.6701,2.6946,2.6943,2.6941,2.694,2.6939,2.7461,2.7488,2.7444,2.7444,2.7418,2.7401,2.7419,2.7368,2.737,2.7355,2.7302,2.7317,2.7279,2.7247,2.7226,2.7238,2.7189,2.7215,2.7221,2.7229,2.7244,2.7022,2.7234,2.7234,2.7233,2.7232,2.7231,0,2.769,2.7657,2.7659,2.7631,2.7633,2.7561,2.7534,2.754,2.7554,2.7525,2.7521,2.7528,2.7528,2.747,2.7463,2.7484,2.745,2.7486,2.7483,2.7478,2.7287,2.7272,2.7514,2.7514,2.7514,2.7514,2.7514,2.7514,2.7809,2.7851,2.7808,2.7837,2.7803,2.7816,2.7807,2.7791,2.7768,2.778,2.778,2.7741,2.7702,2.7692,2.7691,2.7673,2.7676,2.7724,2.7696,2.7518,2.7491,2.7465,2.7451,2.7726,2.7726,2.7886,2.7887,2.7888]}]]